Terminal Aerodrome Forecast
Issued by NWS

Home | Current Version | Previous Version | Text Only | Print | Product List | Glossary On
Versions: 1 2 3 4 5 6 7 8 9 10 11 12 13 14 15 16 17 18 19 20 21 22 23 24
000
FTAK31 PAFA 222331
TAFAFA
TAF
PAFA 222331Z 2300/2406 05004KT P6SM SCT060 BKN120
     FM230600 03004KT P6SM VCSH BKN040 OVC050
     FM231500 VRB03KT P6SM BKN050 BKN200=

USA.gov is the U.S. government's official web portal to all federal, state and local government web resources and services.